Voltar ao catálogo

STARLINK-34853

AtivoComunicaçõesVLEO
NORAD 65892·PAYLOAD·🇺🇸 United States

Lançado Oct 7, 2025 de Cape Canaveral Space Force Station

Loading…

Próximas Passagens (próximas 24 horas)

TLE

AtualizadoSource: CelesTrak SupGP

Época: Sep 14, 2026, 21:21 UTC

1 65892C 25224L   26257.89006944  .00026491  00000+0  78244-3 0  2573
2 65892  53.1577 208.2263 0001510 105.7469 213.7286 15.34386795    13

Acompanhe STARLINK-34853 em tempo real com AllMySat

Download on the App Store